Simultaneous Nadir Overpasses (SNOs) Predictions

Prediction of SNOs between AURA and NPP Satellite Orbit:

Table of predicted SNOs for the next 14.0 days since TLE Epoch: 2/27/2021
Index Date (AURA) Time (AURA) Lat,Lon (AURA) SZA (AURA ) Date (NPP) Time (NPP) Lat,Lon (NPP) SZA (NPP ) Distance(km) Time Diff (sec)
1 02/28/2021 19:08:33 -79.44, -30.68 79.44 02/28/2021 19:07:19 -79.44, -30.64 79.39 0.81 74
2 02/28/2021 19:57:54 79.63, 138.29 100.27 02/28/2021 19:57:58 79.63, 138.18 100.29 2.24 4
3 03/03/2021 11:25:02 -79.47, 85.40 80.51 03/03/2021 11:24:13 -79.47, 85.34 80.47 1.26 49
4 03/03/2021 12:14:20 79.77,-104.82 99.04 03/03/2021 12:14:48 79.78,-104.70 98.99 2.40 28
5 03/06/2021 03:41:29 -79.54,-158.29 81.65 03/06/2021 03:41:05 -79.53,-158.41 81.61 2.61 24
6 03/06/2021 04:30:47 79.83, 11.50 97.90 03/06/2021 04:31:40 79.83, 11.56 97.85 1.31 53
7 03/08/2021 19:10:55 72.74, 125.86 105.28 03/08/2021 19:09:42 73.08, 123.85 105.61 75.50 73
8 03/08/2021 19:57:54 -79.70, -41.20 82.95 03/08/2021 19:57:54 -79.71, -41.05 82.98 3.12 0
9 03/11/2021 11:25:01 79.52, -94.29 96.28 03/11/2021 11:24:09 79.53, -94.20 96.30 1.84 52



Historial Predications of SNOs between AURA and NPP
